Sydney, Australia

6:57 AM AEST en Agosto 21, 2017 (GMT +1000)
Kingsford Smith International

Tiempo Historia de YSSY - Junio, 2017

Change the Weather History Date:

Lunes, Junio 19, 2017

  Actual Average Record
Temperature  
Temperatura media 58 ° F -  
Temperatura máxima 63 ° F 62 ° F 69 ° F (2014)
Temperatura mínima 53 ° F 45 ° F 42 ° F (1998)
Degree Days  
Grados día de calefacción 7    
Growing Degree Days 8 (Base 50)    
Moisture  
Punto de rocío 55 ° F    
Average Humidity 79    
Maximum Humidity 100    
Minimum Humidity 70    
Precipitación  
Precipitación 0.02 pul 0.11 pul - ()
Presión al nivel del mar  
Presión al nivel del mar 30.38 pul    
Viento  
Velocidad del viento 16 mph ()    
Velocidad máxima del viento 21 mph    
Max Gust Speed 36 mph    
Visibilidad 7.9 Millas    
Eventos Lluvia    
Averages and records for this station are not official NWS values.
T = Trace of Precipitation, MM = Missing Value Source: Averaged Metar Reports

Daily Weather History Graph

Daily Weather History Graph

Search for Another Location

Airport or City:

Trip Planner

Search our weather history database for the weather conditions in past years. The results will help you decide how hot, cold, wet, or windy it might be!

Date:

Astronomía

Jun. 19, 2017 Salida Puesta
Hora real 6:59 AM AEST 4:53 PM AEST
Crepúsculo civil 6:32 AM AEST 5:21 PM AEST
Crepúsculo náutico 6:00 AM AEST 5:52 PM AEST
Crepúsculo astronómico 5:30 AM AEST 6:22 PM AEST
Luna 1:00 AM AEST (6/19) 1:10 PM AEST (6/19)
Horas de luz 10h 49m
Horas de luz
9h 53m
Creciente menguante, 33% of the Moon is Illuminated
Jun 19
Creciente menguante
Jun 24
Nueva
Jul 1
Cuarto creciente
Jul 9
Luna llena
Jul 17
Cuarto menguante

Hourly Weather History & Observations

Hora (AEST) Temp. Punto de rocío Humedad Presión Visibilidad Wind Dir Velocidad del viento Velocidad de ráfagas Precip Eventos Condiciones
12:00 AM 59 ° F 53 ° F 73% 30.38 pul 16 mi SO 18.4 mph - -   Parcialmente nublado
12:00 AM 59.0 ° F 53.6 ° F 82% 30.36 pul 6.2 mi SSO 18.4 mph - N/A   Muy nublado
1:00 AM 60 ° F 53 ° F 71% 30.37 pul - SSO 18.4 mph - -  
1:00 AM 59.0 ° F 53.6 ° F 82% 30.36 pul 6.2 mi SSO 18.4 mph - N/A   Muy nublado
2:00 AM 59 ° F 53 ° F 75% 30.36 pul - SO 18.4 mph - -  
3:00 AM 59.0 ° F 53.6 ° F 82% 30.36 pul 6.2 mi SSO 17.3 mph - N/A   Nubes dispersas
4:00 AM 59 ° F 53 ° F 74% 30.37 pul - SO 16.1 mph - -  
4:00 AM 59.0 ° F 53.6 ° F 82% 30.36 pul 6.2 mi SO 16.1 mph - N/A   Muy nublado
4:30 AM 59.0 ° F 53.6 ° F 82% 30.36 pul 6.2 mi SO 12.7 mph - N/A Lluvia Lluvia débil
5:00 AM 58 ° F 53 ° F 78% 30.37 pul - SO 15.0 mph - -  
5:00 AM 57.2 ° F 53.6 ° F 88% 30.36 pul 6.2 mi SO 15.0 mph - N/A Lluvia Lluvia débil
5:30 AM 59.0 ° F 53.6 ° F 82% 30.36 pul 6.2 mi SSO 18.4 mph - N/A   Nubes dispersas
6:00 AM 58 ° F 52 ° F 75% 30.39 pul 16 mi SSO 18.4 mph - - Lluvia Lluvia débil
6:00 AM 57.2 ° F 51.8 ° F 82% 30.39 pul 6.2 mi SSO 18.4 mph - N/A   Nubes dispersas
6:30 AM 59.0 ° F 53.6 ° F 82% 30.39 pul 6.2 mi SSO 18.4 mph - N/A Lluvia Lluvia débil
7:00 AM 59 ° F 53 ° F 74% 30.41 pul - SSO 16.1 mph - -  
7:00 AM 59.0 ° F 53.6 ° F 82% 30.39 pul 6.2 mi SSO 16.1 mph - N/A   Muy nublado
7:30 AM 59.0 ° F 51.8 ° F 77% 30.39 pul 6.2 mi SSO 15.0 mph - N/A   Muy nublado
8:00 AM 57 ° F 51 ° F 76% 30.42 pul - SSO 15.0 mph - -  
8:00 AM 57.2 ° F 51.8 ° F 82% 30.39 pul 6.2 mi SSO 15.0 mph - N/A   Muy nublado
8:30 AM 57.2 ° F 51.8 ° F 82% 30.42 pul 6.2 mi SO 11.5 mph - N/A   Muy nublado
9:00 AM 60 ° F 53 ° F 70% 30.43 pul 19 mi SSO 16.1 mph - -   Parcialmente nublado
9:00 AM 60.8 ° F 53.6 ° F 77% 30.42 pul 6.2 mi SSO 16.1 mph - N/A   Muy nublado
10:00 AM 61 ° F 54 ° F 71% 30.42 pul - SSO 19.6 mph - -  
10:00 AM 60.8 ° F 53.6 ° F 77% 30.42 pul 6.2 mi SSO 19.6 mph - N/A   Parcialmente nublado
10:30 AM 60.8 ° F 53.6 ° F 77% 30.42 pul 6.2 mi SSO 18.4 mph - N/A   Nubes dispersas
11:00 AM 61 ° F 55 ° F 73% 30.42 pul - SSO 18.4 mph - -  
11:00 AM 60.8 ° F 55.4 ° F 82% 30.39 pul 6.2 mi SSO 18.4 mph - N/A   Nubes dispersas
11:30 AM 60.8 ° F 55.4 ° F 82% 30.39 pul 6.2 mi Sur 19.6 mph 31.1 mph N/A   Muy nublado
12:00 PM 63 ° F 56 ° F 71% 30.40 pul 19 mi Sur 20.7 mph - -   Parcialmente nublado
12:00 PM 62.6 ° F 55.4 ° F 77% 30.39 pul 6.2 mi Sur 20.7 mph - N/A   Muy nublado
12:30 PM 62.6 ° F 55.4 ° F 77% 30.36 pul 6.2 mi Sur 20.7 mph - N/A   Muy nublado
1:00 PM 62 ° F 56 ° F 74% 30.38 pul - Sur 18.4 mph - -  
1:00 PM 62.6 ° F 55.4 ° F 77% 30.36 pul 6.2 mi Sur 18.4 mph - N/A   Muy nublado
1:30 PM 62.6 ° F 55.4 ° F 77% 30.36 pul 6.2 mi Sur 18.4 mph - N/A   Muy nublado
1:54 PM 62.6 ° F 55.4 ° F 77% 30.36 pul 6.2 mi Sur 19.6 mph 35.7 mph N/A   Muy nublado
2:00 PM 62 ° F 56 ° F 75% 30.37 pul - Sur 20.7 mph - -  
2:00 PM 62.6 ° F 55.4 ° F 77% 30.36 pul 6.2 mi Sur 20.7 mph 35.7 mph N/A   Muy nublado
2:30 PM 62.6 ° F 55.4 ° F 77% 30.36 pul 6.2 mi Sur 20.7 mph - N/A   Muy nublado
3:00 PM 62 ° F 57 ° F 77% 30.37 pul 19 mi Sur 19.6 mph - -   Parcialmente nublado
3:00 PM 62.6 ° F 57.2 ° F 82% 30.36 pul 6.2 mi Sur 19.6 mph - N/A   Muy nublado
3:30 PM 62.6 ° F 57.2 ° F 82% 30.36 pul 6.2 mi Sur 18.4 mph - N/A   Muy nublado
4:00 PM 62 ° F 56 ° F 77% 30.38 pul - Sur 15.0 mph - -  
4:00 PM 62.6 ° F 57.2 ° F 82% 30.36 pul 6.2 mi Sur 15.0 mph - N/A   Muy nublado
4:30 PM 62.6 ° F 57.2 ° F 82% 30.36 pul 6.2 mi Sur 17.3 mph - N/A   Muy nublado
5:00 PM 62 ° F 56 ° F 77% 30.37 pul - Sur 17.3 mph - -  
5:00 PM 62.6 ° F 57.2 ° F 82% 30.36 pul 6.2 mi Sur 17.3 mph - N/A   Muy nublado
5:30 PM 62.6 ° F 57.2 ° F 82% 30.36 pul 6.2 mi Sur 19.6 mph - N/A   Nubes dispersas
6:00 PM 62 ° F 57 ° F 78% 30.38 pul 19 mi Sur 16.1 mph - -   Parcialmente nublado
6:00 PM 62.6 ° F 57.2 ° F 82% 30.36 pul 6.2 mi Sur 16.1 mph - N/A   Parcialmente nublado
6:30 PM 62.6 ° F 57.2 ° F 82% 30.36 pul 6.2 mi Sur 15.0 mph - N/A   Nubes dispersas
7:00 PM 62 ° F 57 ° F 79% 30.39 pul - Sur 15.0 mph - -  
7:00 PM 62.6 ° F 57.2 ° F 82% 30.39 pul 6.2 mi Sur 15.0 mph - N/A   Muy nublado
8:00 PM 62 ° F 57 ° F 80% 30.39 pul - Sur 17.3 mph - -  
8:00 PM 62.6 ° F 57.2 ° F 82% 30.36 pul 6.2 mi Sur 17.3 mph - N/A   Nubes dispersas
8:30 PM 62.6 ° F 57.2 ° F 82% 30.39 pul 6.2 mi Sur 15.0 mph - N/A   Muy nublado
9:00 PM 62 ° F 56 ° F 77% 30.39 pul 16 mi Sur 15.0 mph - -   Parcialmente nublado
9:00 PM 62.6 ° F 57.2 ° F 82% 30.36 pul 6.2 mi Sur 15.0 mph - N/A   Nubes dispersas
9:30 PM 60.8 ° F 53.6 ° F 77% 30.39 pul 6.2 mi Sur 17.3 mph - N/A   Nubes dispersas
10:00 PM 60 ° F 56 ° F 82% 30.39 pul - Sur 11.5 mph - -  
10:00 PM 59.0 ° F 55.4 ° F 88% 30.36 pul 6.2 mi Sur 11.5 mph - N/A   Nubes dispersas
11:00 PM 60 ° F 58 ° F 91% 30.39 pul - SSO 13.8 mph - -  
11:00 PM 59.0 ° F 59.0 ° F 100% 30.39 pul 6.2 mi SSO 13.8 mph - N/A   Muy nublado